Weather History for KAPN - November, 2011

Change the Weather History Date:

Saturday, November 19, 2011

  Actual Average Record
Temperature  
Mean Temperature 40 °F 34 °F  
Max Temperature 46 °F 42 °F 72 °F (1953)
Min Temperature 34 °F 28 °F 8 °F (1936)
Degree Days  
Heating Degree Days 25 30  
Month to date heating degree days 439 519  
Since 1 July heating degree days 1228 1463  
Moisture  
Dew Point 29 °F    
Average Humidity 65    
Maximum Humidity 89    
Minimum Humidity 40    
Precipitation  
Precipitation 0.03 in 0.07 in 1.15 in (1921)
Month to date precipitation 1.65 1.35  
Year to date precipitation 34.98 25.66  
Snow  
Snow 0.00 in 0.30 in 3.60 in (1969)
Month to date snowfall 0.2 3.5  
Since 1 July snowfall 0.2 3.9  
Snow Depth 0.00 in    
Sea Level Pressure  
Sea Level Pressure 29.83 in    
Wind  
Wind Speed 7 mph (South)    
Max Wind Speed 14 mph    
Max Gust Speed 20 mph    
Visibility 10 miles    
Events Rain    
T = Trace of Precipitation, MM = Missing Value Source: NWS Daily Summary

Daily Weather History Graph

Daily Weather History Graph

Search for Another Location

Airport or City:

Trip Planner

Search our weather history database for the weather conditions in past years. The results will help you decide how hot, cold, wet, or windy it might be!

Date:

Astronomy

Nov. 19, 2011 Rise Set
Actual Time 7:37 AM EST 5:01 PM EST
Civil Twilight 7:04 AM EST 5:33 PM EST
Nautical Twilight 6:29 AM EST 6:09 PM EST
Astronomical Twilight 5:54 AM EST 6:44 PM EST
Moon 12:39 AM EST (11/19) 1:33 PM EST (11/19)
Length of Visible Light 10h 28m
Length of Day
9h 24m
Last Quarter, 38% of the Moon is Illuminated
Nov 19
Last Quarter
Nov 25
New
Dec 2
First Quarter
Dec 10
Full
Dec 17
Last Quarter

Hourly Weather History & Observations

Time (EST) Temp. Windchill Dew Point Humidity Pressure Visibility Wind Dir Wind Speed Gust Speed Precip Events Conditions
12:54 AM 41.0 °F 34.3 °F 19.0 °F 41% 29.89 in 10.0 mi SSW 11.5 mph - N/A   Clear
1:54 AM 41.0 °F 34.7 °F 19.9 °F 43% 29.89 in 10.0 mi SSW 10.4 mph 19.6 mph N/A   Clear
2:54 AM 37.9 °F 32.7 °F 19.9 °F 48% 29.89 in 10.0 mi South 6.9 mph - N/A   Clear
3:54 AM 37.0 °F 31.6 °F 21.0 °F 52% 29.89 in 10.0 mi South 6.9 mph - N/A   Clear
4:54 AM 36.0 °F 29.6 °F 19.9 °F 52% 29.90 in 10.0 mi South 8.1 mph - N/A   Clear
5:54 AM 35.1 °F 30.1 °F 21.0 °F 57% 29.90 in 10.0 mi South 5.8 mph - N/A   Partly Cloudy
6:54 AM 37.0 °F 31.0 °F 21.9 °F 54% 29.89 in 10.0 mi SSW 8.1 mph - N/A   Overcast
7:54 AM 39.0 °F 33.4 °F 23.0 °F 53% 29.90 in 10.0 mi SSW 8.1 mph - N/A   Overcast
8:54 AM 39.9 °F 33.9 °F 23.0 °F 51% 29.90 in 10.0 mi SSW 9.2 mph - N/A   Overcast
9:54 AM 42.1 °F 37.1 °F 25.0 °F 51% 29.90 in 10.0 mi SSW 8.1 mph - N/A   Overcast
10:54 AM 44.1 °F 40.1 °F 26.1 °F 49% 29.90 in 10.0 mi SSW 6.9 mph - N/A   Overcast
11:54 AM 45.0 °F 40.6 °F 27.0 °F 49% 29.88 in 10.0 mi SSW 8.1 mph - N/A   Overcast
12:54 PM 45.0 °F 41.8 °F 28.0 °F 52% 29.86 in 10.0 mi South 5.8 mph - N/A   Overcast
1:54 PM 46.0 °F 43.9 °F 28.0 °F 50% 29.83 in 10.0 mi South 4.6 mph - N/A   Overcast
2:54 PM 46.0 °F 42.5 °F 28.0 °F 50% 29.82 in 10.0 mi South 6.9 mph - N/A   Overcast
3:54 PM 46.0 °F 41.9 °F 28.0 °F 50% 29.83 in 10.0 mi SSW 8.1 mph - N/A   Overcast
4:54 PM 41.0 °F 36.4 °F 37.0 °F 86% 29.82 in 10.0 mi SSE 6.9 mph - 0.01 in Rain Light Rain
5:54 PM 39.9 °F 36.7 °F 37.9 °F 93% 29.81 in 10.0 mi SSE 4.6 mph - 0.00 in Rain Light Rain
6:54 PM 41.0 °F 39.0 °F 36.0 °F 82% 29.79 in 10.0 mi ESE 3.5 mph - 0.00 in   Overcast
7:54 PM 41.0 °F 38.0 °F 37.0 °F 86% 29.77 in 10.0 mi South 4.6 mph - N/A   Overcast
8:54 PM 42.1 °F - 37.0 °F 82% 29.75 in 10.0 mi Calm Calm - 0.00 in   Overcast
9:54 PM 39.9 °F 37.8 °F 39.0 °F 97% 29.73 in 8.0 mi South 3.5 mph - 0.01 in Rain Light Rain
10:05 PM 41.0 °F 37.1 °F 39.2 °F 93% 29.70 in 10.0 mi South 5.8 mph - 0.00 in Rain Light Rain
10:54 PM 43.0 °F 38.8 °F 39.9 °F 89% 29.71 in 10.0 mi South 6.9 mph - 0.01 in Rain Light Rain
11:02 PM 42.8 °F 38.0 °F 39.2 °F 87% 29.69 in 10.0 mi SSW 8.1 mph - N/A   Overcast
11:54 PM 43.0 °F 39.5 °F 41.0 °F 93% 29.69 in 9.0 mi SSW 5.8 mph - N/A   Overcast